| time (UTC) | temp F | wind direction | speed knots | gust knots | rain 1hr in | rain 24hr in | rain mn in | humidity % | barometer mb |
| 20260503183547 | 59 | 237 | 19.1 | 0.0 | 0.00 | 0.00 | 0.00 | 46 | 983.2 |
| 20260503181538 | 59 | 235 | 18.2 | 0.0 | 0.00 | 0.00 | 0.00 | 48 | 983.5 |
| 20260503180110 | 59 | 236 | 18.2 | 0.0 | 0.00 | 0.00 | 0.00 | 48 | 983.5 |
| 20260503174537 | 58 | 235 | 19.1 | 0.0 | 0.00 | 0.00 | 0.00 | 46 | 983.9 |
| 20260503173057 | 58 | 238 | 19.1 | 0.0 | 0.00 | 0.00 | 0.00 | 45 | 983.2 |
| 20260503170106 | 58 | 236 | 19.1 | 0.0 | 0.00 | 0.00 | 0.00 | 45 | 983.2 |
| 20260503160114 | 55 | 236 | 15.6 | 0.0 | 0.00 | 0.00 | 0.00 | 51 | 982.9 |
| 20260503150110 | 53 | 240 | 14.8 | 0.0 | 0.00 | 0.00 | 0.00 | 54 | 983.9 |
| 20260503140113 | 51 | 230 | 13.9 | 0.0 | 0.00 | 0.00 | 0.00 | 57 | 983.9 |
| 20260503130110 | 44 | 233 | 11.3 | 0.0 | 0.00 | 0.00 | 0.00 | 66 | 984.1 |
| 20260503120115 | 41 | 225 | 10.4 | 0.0 | 0.00 | 0.00 | 0.00 | 65 | 984.3 |
| 20260503110110 | 39 | 223 | 10.4 | 0.0 | 0.00 | 0.00 | 0.00 | 66 | 983.5 |
| 20260503100110 | 37 | 221 | 8.7 | 0.0 | 0.00 | 0.00 | 0.00 | 67 | 983.6 |
| 20260503090106 | 36 | 202 | 7.8 | 0.0 | 0.00 | 0.00 | 0.00 | 63 | 983.7 |
| 20260503081537 | 36 | 192 | 7.8 | 0.0 | 0.00 | 0.00 | 0.00 | 63 | 984.2 |
| 20260503071537 | 35 | 185 | 7.0 | 0.0 | 0.00 | 0.00 | 0.00 | 64 | 984.4 |
| 20260503070105 | 35 | 185 | 6.1 | 0.0 | 0.00 | 0.00 | 0.00 | 64 | 984.4 |
| 20260503060116 | 36 | 199 | 5.2 | 0.0 | 0.00 | 0.00 | 0.00 | 64 | 985.4 |
| 20260503054538 | 36 | 192 | 5.2 | 0.0 | 0.00 | 0.00 | 0.00 | 63 | 985.9 |
| 20260503051537 | 36 | 198 | 5.2 | 0.0 | 0.00 | 0.00 | 0.00 | 63 | 986.0 |
| 20260503050106 | 36 | 205 | 5.2 | 0.0 | 0.00 | 0.00 | 0.00 | 63 | 986.0 |
| 20260503044537 | 36 | 206 | 5.2 | 0.0 | 0.00 | 0.00 | 0.00 | 64 | 986.4 |
| 20260503043057 | 36 | 208 | 5.2 | 0.0 | 0.00 | 0.00 | 0.00 | 65 | 985.8 |
| 20260503041538 | 36 | 210 | 5.2 | 0.0 | 0.00 | 0.00 | 0.00 | 65 | 985.8 |
| 20260503040108 | 37 | 212 | 5.2 | 0.0 | 0.00 | 0.00 | 0.00 | 65 | 985.8 |
| 20260503034537 | 37 | 217 | 4.3 | 0.0 | 0.00 | 0.00 | 0.00 | 62 | 986.7 |
| 20260503033058 | 37 | 219 | 4.3 | 0.0 | 0.00 | 0.00 | 0.00 | 64 | 986.9 |
| 20260503031537 | 38 | 211 | 5.2 | 0.0 | 0.00 | 0.00 | 0.00 | 64 | 986.9 |
| 20260503030107 | 38 | 221 | 5.2 | 0.0 | 0.00 | 0.00 | 0.00 | 64 | 986.9 |
| 20260503024537 | 38 | 231 | 5.2 | 0.0 | 0.00 | 0.00 | 0.00 | 61 | 987.6 |
| 20260503023057 | 38 | 232 | 5.2 | 0.0 | 0.00 | 0.00 | 0.00 | 64 | 987.4 |
| 20260503021538 | 39 | 234 | 6.1 | 0.0 | 0.00 | 0.00 | 0.00 | 64 | 987.4 |
| 20260503020106 | 39 | 235 | 6.1 | 0.0 | 0.00 | 0.00 | 0.00 | 64 | 987.4 |
| 20260503014537 | 39 | 238 | 6.1 | 0.0 | 0.00 | 0.00 | 0.00 | 60 | 986.8 |
| 20260503013055 | 40 | 239 | 6.1 | 0.0 | 0.00 | 0.00 | 0.00 | 60 | 986.8 |
| 20260503011537 | 40 | 229 | 5.2 | 0.0 | 0.00 | 0.00 | 0.00 | 60 | 986.8 |
| 20260503010104 | 41 | 235 | 5.2 | 0.0 | 0.00 | 0.00 | 0.00 | 60 | 986.8 |
| 20260503004537 | 41 | 239 | 5.2 | 0.0 | 0.00 | 0.00 | 0.00 | 52 | 987.6 |
| 20260503003051 | 42 | 230 | 4.3 | 0.0 | 0.00 | 0.00 | 0.00 | 52 | 987.9 |
| 20260503001537 | 43 | 236 | 4.3 | 0.0 | 0.00 | 0.00 | 0.00 | 52 | 987.9 |
| 20260503000106 | 44 | 241 | 4.3 | 0.0 | 0.00 | 0.00 | 0.00 | 52 | 987.9 |
| 20260502234538 | 45 | 256 | 5.2 | 0.0 | 0.00 | 0.00 | 0.00 | 42 | 987.5 |
| 20260502233050 | 45 | 263 | 7.0 | 0.0 | 0.00 | 0.00 | 0.00 | 42 | 987.6 |
| 20260502231538 | 46 | 265 | 7.8 | 0.0 | 0.00 | 0.00 | 0.00 | 42 | 987.6 |
| 20260502230104 | 46 | 269 | 8.7 | 0.0 | 0.00 | 0.00 | 0.00 | 42 | 987.6 |
| 20260502224538 | 46 | 271 | 9.6 | 0.0 | 0.00 | 0.00 | 0.00 | 39 | 988.1 |
| 20260502223056 | 47 | 269 | 10.4 | 0.0 | 0.00 | 0.00 | 0.00 | 40 | 988.7 |
| 20260502221538 | 47 | 270 | 10.4 | 0.0 | 0.00 | 0.00 | 0.00 | 40 | 988.7 |
| 20260502220104 | 47 | 270 | 10.4 | 0.0 | 0.00 | 0.00 | 0.00 | 40 | 988.7 |
| 20260502214538 | 47 | 272 | 10.4 | 0.0 | 0.00 | 0.00 | 0.00 | 42 | 988.8 |
| 20260502213056 | 48 | 270 | 9.6 | 0.0 | 0.00 | 0.00 | 0.00 | 39 | 988.5 |
| 20260502211538 | 48 | 271 | 8.7 | 0.0 | 0.00 | 0.00 | 0.00 | 39 | 988.5 |
| 20260502210107 | 48 | 272 | 8.7 | 0.0 | 0.00 | 0.00 | 0.00 | 39 | 988.5 |
| 20260502204538 | 48 | 271 | 8.7 | 0.0 | 0.00 | 0.00 | 0.00 | 41 | 988.8 |
| 20260502203056 | 48 | 271 | 9.6 | 0.0 | 0.00 | 0.00 | 0.00 | 39 | 989.3 |
| 20260502201538 | 47 | 272 | 9.6 | 0.0 | 0.00 | 0.00 | 0.00 | 39 | 989.3 |
| 20260502200104 | 47 | 274 | 9.6 | 0.0 | 0.00 | 0.00 | 0.00 | 39 | 989.3 |
| 20260502194538 | 47 | 274 | 9.6 | 0.0 | 0.00 | 0.00 | 0.00 | 46 | 989.5 |
| 20260502193051 | 46 | 276 | 9.6 | 0.0 | 0.00 | 0.00 | 0.00 | 46 | 989.5 |
| 20260502191538 | 46 | 279 | 9.6 | 0.0 | 0.00 | 0.00 | 0.00 | 46 | 989.5 |
| 20260502190104 | 46 | 278 | 9.6 | 0.0 | 0.00 | 0.00 | 0.00 | 46 | 989.5 |
| 20260502184538 | 45 | 278 | 9.6 | 0.0 | 0.00 | 0.00 | 0.00 | 45 | 989.5 |